Location: Krakow
(50.0212°N, 19.9423°E)
Time: 09:30:55
(UTC+02:00)

CAS-6 - Pass Details

Date: 02 May 2024
Orbit: 603 x 620 km, 97.8° (Epoch: 18 May)

Event Time Altitude Azimuth Distance (km) Brightness Sun altitude
Exits shadow 22:35:48 46° 144° (SE) 823 ? -19.3°
Maximum altitude 22:36:58 73° 73° (ENE) 645 ? -19.4°
Drops below altitude 10° 22:41:14 10° 350° (N) 1,971 ? -19.7°
Enters shadow 23:37:51 -65° 170° (S) 12,215 ? -23.2°
